World > North America > United States > Wisconsin   City of Sheboygan, WI

Sheboygan, Wisconsin Regional Weather

Lat: 43.75N, Lon: 87.72W
Wx Zone: WIZ052Web Search
Sheboygan Weather Warning NWS WEATHER ALERT FOR THE SHEBOYGAN, WI AREA - WINTER WEATHER ADVISORY Issued: 959 AM CST Mon Jan 25 2021 Sheboygan Weather Warning  

Helpful Tip: Abbreviated, 7 Day, 14 Day Forecasts. There is a weather forecast for every taste.

Feedback
Sheboygan Weather Map
UTC Time: 1/25/2021, 19:54
Your Time:

Sheboygan, WI Regional Weather

Expires:202101252000;;478832
ASUS43 KMKX 251920
RWRWI 

WISCONSIN REGIONAL WEATHER ROUNDUP
NATIONAL WEATHER SERVICE MILWAUKEE/SULLIVAN WI
100 PM CST MON JAN 25 2021

NOTE: "FAIR" INDICATES FEW OR NO CLOUDS BELOW 12,000 FEET WITH NO
SIGNIFICANT WEATHER AND/OR OBSTRUCTIONS TO VISIBILITY.


WIZ051-052-058>065-066-070>072-252000-
SOUTHEAST WISCONSIN
  
CITY           SKY/WX    TMP DP  RH WIND       PRES   REMARKS
MILWAUKEE      CLOUDY    28  23  81 N13G25    30.01F WCI  17          
WAUKESHA       CLOUDY    25  18  74 NE9       30.03F WCI  15          
MILWAUKEE/TIMM CLOUDY    25  16  68 NE16      30.05F WCI  12          
RACINE         CLOUDY    31  23  72 NE18      30.01F WCI  19          
KENOSHA        CLOUDY    33  24  69 NE18G26   29.98F WCI  22          
FOND DU LAC    PTSUNNY   18   9  68 N14       30.08F WCI   4          
SHEBOYGAN      PTSUNNY   22  13  68 N12       30.07F WCI  10          
WEST BEND      PTSUNNY   25  19  80 NE14      30.04F WCI  13          
JUNEAU         PTSUNNY   18  11  74 N13       30.03F WCI   4          
$$


SKY/WX - Weather  TMP - Temperature  DP - Dew Point  RH - Relative Humidity
WIND - Wind Direction/Speed PRES - Barometric Pressure VSB - Visibility
WCI - Wind Chill Index E13G22 Wind - East Wind 13 mph/Gusts of 22 mph
Sheboygan, WI web page url QR Code Scan this code with your camera.